Location: Sternwarte auf dem Internationalen Platz Vogelsang IP
(50.5721°N, 6.4398°E)
Time: 19:42:10
(UTC+01:00)

A-11 Canister half - Pass Details

Date: 12 December 2025
Orbit: 1511 x 1688 km, 47.2° (Epoch: 19 January)

Event Time Altitude Azimuth Distance (km) Brightness Sun altitude
Rises 13:38:12 0° 175° (S) 4,643 12.9 14.7°
Reaches altitude 10° 13:43:18 10° 151° (SSE) 3,684 11.8 14.5°
Maximum altitude 13:47:20 14° 124° (SE) 3,424 11.1 14.3°
Drops below altitude 10° 13:51:23 10° 98° (E) 3,736 11.0 14.0°
Sets 13:56:36 0° 75° (ENE) 4,762 11.2 13.8°
